Regional Weather Roundup
Issued by NWS

Home | Current Version | Previous Version | Graphics & Text | Print | Product List | Glossary On
Versions: 1 2 3 4 5 6 7 8 9 10 11 12 13 14 15 16 17 18 19 20 21 22 23 24 25 26 27 28 29 30 31 32 33 34 35 36 37 38 39 40 41 42 43 44 45 46 47 48 49 50
000
ASUS43 KDTX 050801
RWRMI
MICHIGAN HOURLY REGIONAL WEATHER ROUNDUP
NATIONAL WEATHER SERVICE DETROIT/PONTIAC MI
400 AM EDT WED AUG 05 2015

NOTE: "FAIR" INDICATES FEW OR NO CLOUDS BELOW 12,000 FEET WITH NO
SIGNIFICANT WEATHER AND/OR OBSTRUCTION TO VISIBILITY.

MIZ047>049-052>055-059>063-066>070-074>076-081>083-050900-
SOUTHEAST LOWER MICHIGAN

CITY           SKY/WX    TMP DP  RH WIND       PRES   REMARKS
ADRIAN         CLEAR     57  54  89 CALM      30.03R
ALMA           CLEAR     52  52  99 CALM      30.03S
ANN ARBOR      CLEAR     58  53  84 NW3       30.01S
BAD AXE        MOCLDY    55  54  99 NW3       30.00S FOG
CARO           CLEAR     58  56  92 CALM      30.00S
DETROIT CITY   CLEAR     63  55  75 NW5       30.00R
DETROIT        PTCLDY    62  54  74 W5        30.01R
FLINT          CLEAR     60  54  80 W3        30.01S
GROSSE ILE     CLEAR     64  55  72 NW5       29.99S
HILLSDALE      CLEAR     56  56 100 CALM      30.03S
HOWELL         CLEAR     55  53  92 CALM      30.02S

CITY           SKY/WX    TMP DP  RH WIND       PRES   REMARKS
JACKSON        CLEAR     56  54  93 SW3       30.03R
LAMBERTVILLE   CLEAR     59  55  87 CALM      30.02S
LANSING        MOCLDY    57  54  89 CALM      30.03S
LAPEER         FAIR      56  55  96 CALM      30.01R
MASON          PTCLDY    53  52  95 CALM      30.03S
MONROE         CLEAR     57  55  92 NW5       30.01R
MT. CLEMENS    CLEAR     61  57  85 W5        29.97S
PONTIAC        CLEAR     62  55  77 NW7       30.00S
PORT HOPE        N/A     64  56  75 VRB5      29.98S
PORT HURON     FOG       55  55 100 NW3       29.99S VSB 1/4
TRI CITIES     MOCLDY    61  55  81 NW6       30.03R
MIDLAND        MOCLDY    56  54  95 CALM      30.02S
TROY           CLEAR     64  55  74 W6        30.02S
SAGINAW HB     CLEAR     59  55  88 W6        30.01S
$$
MIZ043>046-050>051-056>058-064>065-071>073-077>080-050900-
SOUTHWEST LOWER MICHIGAN

CITY           SKY/WX    TMP DP  RH WIND       PRES   REMARKS
BATTLE CREEK     N/A    N/A N/A N/A MISG      30.04R
BENTON HARBOR  CLEAR     56  55  97 CALM      30.02S
BIG RAPIDS     CLEAR     54  53  95 CALM      30.04R
COLDWATER      CLEAR     55  55  97 CALM      30.03S
FREMONT        FAIR      55  55  99 CALM      30.03S
HOLLAND        CLEAR     59  55  87 CALM      30.04R
GRAND RAPIDS   MOCLDY    61  57  87 SW3       30.03F
IONIA          MOCLDY    59  55  87 NW3       30.02S
KALAMAZOO      CLEAR     58  54  86 CALM      30.04R
LUDINGTON      MOCLDY    58  56  92 CALM      30.04R
MARSHALL       CLEAR     55  54  96 CALM      30.03S
MOUNT PLEASANT CLEAR     58  55  88 CALM      30.02S
MUSKEGON       PTCLDY    62  56  80 CALM      30.03S
SOUTH HAVEN    CLEAR     56  55  94 CALM      30.03R
$$
MIZ016>042-050900-
NORTHERN LOWER MICHIGAN

CITY           SKY/WX    TMP DP  RH WIND       PRES   REMARKS
ALPENA         CLEAR     53  49  86 W6        30.01S
BEAVER ISLAND  CLEAR     58  51  78 NW8       30.04S
BELLAIRE       CLEAR     53  50  91 CALM      30.05R
CADILLAC       FOG       50  49  97 CALM      30.05R VSB 1
CHARLEVOIX     PTCLDY    58  51  78 NW8       30.07S
FRANKFORT      CLEAR     53  52  97 CALM      30.05R
GAYLORD        CLEAR     54  53  97 CALM      30.04R
GRAYLING       CLEAR     49  48  97 W3        30.04S
HARBOR SPRINGS CLEAR     51  49  92 NW3       30.04R
HOUGHTON LAKE  CLEAR     53  51  93 NW5       30.04S
MANISTEE       CLEAR     54  48  82 CALM      30.05R
OSCODA         CLEAR     52  51  95 W3        30.00S
PELLSTON       CLEAR     46  44  93 CALM      30.03S
ROGERS CITY    CLEAR     53  49  87 W6        30.02S
TRAVERSE CITY  CLEAR     55  52  89 CALM      30.04R
$$
MIZ007>008-015-050900-
EASTERN UPPER MICHIGAN

CITY           SKY/WX    TMP DP  RH WIND       PRES   REMARKS
KINROSS        CLEAR     46  46 100 W3        30.02R
MACKINAC ISLAN CLEAR     54  48  78 NW7       30.02S
NEWBERRY       CLEAR     49  48  97 W8        30.03S
S. S. MARIE    CLOUDY    54  51  90 NW9       30.01R
MUNISING         N/A     53  49  86 S5        30.05R
$$
MIZ004>006-011>014-085-050900-
CENTRAL UPPER MICHIGAN

CITY           SKY/WX    TMP DP  RH WIND       PRES   REMARKS
MANISTIQUE     CLEAR     50  48  93 NW6       30.04S
ESCANABA         N/A     48  46  93 W5        30.06R VSB 3/4
MENOMINEE      CLEAR     54  48  82 N3        30.05R
SAWYER-GWINN   CLEAR     46  45  95 CALM      30.06S
$$
MIZ001>003-009>011-084-050900-
WESTERN UPPER MICHIGAN

CITY           SKY/WX    TMP DP  RH WIND       PRES   REMARKS
IRON MOUNTAIN  PTCLDY    49  47  93 CALM      30.07R
HOUGHTON       CLEAR     52  50  93 NW9       30.06S
COPPER HARBOR    N/A     57  51  80 NW6       30.05R
IRONWOOD       CLEAR     45  43  93 CALM      30.06S
$$

ABBREVIATIONS USED IN REMARKS
   TC - TEMPERATURE IN CELSIUS
  WCI - WIND CHILL INDEX
   HX - HEAT INDEX
  VSB - VISIBILITY




USA.gov is the U.S. government's official web portal to all federal, state and local government web resources and services.